User: anonymous   Login
Location: Unspecified
(0.0000°N, 0.0000°E)
Time: 05:52:14
(UTC+00:00)
Language:

Cosmos 1574 - Orbit

View from above orbital plane
View from above orbital plane
View from above satellite
View from above satellite

Ground track
Ground track

The orbit data is extracted from the following two-line orbital elements,

1 15055U 84062A   18343.90416109  .00000020  00000-0  45857-5 0  9991
2 15055  82.9562 306.3098 0028133 144.4298 273.6984 13.74305500728529
Epoch (UTC): 09 December 2018 21:41:59
Eccentricity: 0.0028133
inclination: 82.9562°
perigee height: 963 km
apogee height: 1005 km
right ascension of ascending node: 306.3098°
argument of perigee: 144.4298°
revolutions per day: 13.74305500
mean anomaly at epoch: 273.6984°
orbit number at epoch: 72852

The dashed part of the orbit path shows where the satellite is in the earth's shadow,  

DLR